sat.trackr.live / text

‹ back to catalog

STARLINK-5534

NORAD 56477 · 2023-064AF

PAYLOAD ACTIVE UNKNOWN

§ Identity

Operator
Country
US
Launch date
2023-05-10
Launch site
AFWTR
Launch vehicle
Mass (kg)
RCS (m²)

Purposes: comms

External: N2YO · Heavens-Above · Gunter

§ Orbital elements

Epoch: 2026-05-25T03:30:19.596960Z

Period
96.11 min
Inclination
69.9986°
Eccentricity
0.0002569
Mean motion
14.98335195 rev/d
Perigee alt
570.3 km
Apogee alt
573.8 km
Semi-major
6,950.2 km
B*
-6.3532e-5
RAAN
291.6004°
Arg perigee
264.0833°
Mean anomaly
96.0033°
Rev number
16,719

§ Raw data

STARLINK-55341 56477U 23064AF  26145.14606015 -.00000851  00000+0 -63532-4 0  99932 56477  69.9986 291.6004 0002569 264.0833  96.0033 14.98335195167191

JSON: /api/v1/satellites/56477 · /tle

For live sub-satellite position, see the globe view (requires WebGL).

§ Visibility from observer

Set your observer location to see the next 7 days of passes ≥ 10°. The values pass through the URL so the page stays shareable.

No JS? Fill the form by hand. The geolocation button needs JavaScript.